Rome, OR

1:32 PM MST on November 22, 2017 (GMT -0700)
Rome State

Weather History for KREO - November, 2011

Change the Weather History Date:

Friday, November 25, 2011

  Actual Average Record
Temperature  
Mean Temperature 33 °F 33 °F  
Max Temperature 47 °F 44 °F 67 °F (1960)
Min Temperature 18 °F 21 °F 3 °F (1985)
Degree Days  
Heating Degree Days 32 32  
Month to date heating degree days 741 689  
Since 1 July heating degree days 1292 1446  
Cooling Degree Days 0 0  
Month to date cooling degree days 0 0  
Year to date cooling degree days 430 507  
Moisture  
Dew Point 22 °F    
Average Humidity 61    
Maximum Humidity 84    
Minimum Humidity 38    
Precipitation  
Precipitation 0.00 in 0.02 in 0.57 in (2005)
Month to date precipitation 0.67 0.52  
Year to date precipitation 10.36 7.99  
Sea Level Pressure  
Sea Level Pressure 30.33 in    
Wind  
Wind Speed 9 mph (NNE)    
Max Wind Speed 16 mph    
Max Gust Speed 21 mph    
T = Trace of Precipitation, MM = Missing Value Source: NWS Daily Summary

Daily Weather History Graph

Daily Weather History Graph

Search for Another Location

Airport or City:

Trip Planner

Search our weather history database for the weather conditions in past years. The results will help you decide how hot, cold, wet, or windy it might be!

Date:

Astronomy

Nov. 25, 2011 Rise Set
Actual Time 6:54 AM PST 4:21 PM PST
Civil Twilight 6:23 AM PST 4:52 PM PST
Nautical Twilight 5:49 AM PST 5:27 PM PST
Astronomical Twilight 5:15 AM PST 6:01 PM PST
Moon 7:29 AM PST (11/25) 4:52 PM PST (11/25)
Length of Visible Light 10h 29m
Length of Day
9h 27m
New Moon, 0% of the Moon is Illuminated
Nov 25
New Moon
Dec 2
First Quarter
Dec 10
Full
Dec 17
Last Quarter
Dec 24
New

Hourly Weather History & Observations

Time (PST) Temp. Windchill Dew Point Humidity Pressure Visibility Wind Dir Wind Speed Gust Speed Precip Events Conditions
12:52 AM 46.0 °F 41.0 °F 28.0 °F 50% 29.95 in - SSW 10.4 mph - N/A   Unknown
1:52 AM 45.0 °F 40.1 °F 28.9 °F 53% 29.97 in - South 9.2 mph - N/A   Unknown
2:52 AM 43.0 °F 35.4 °F 30.0 °F 60% 29.99 in - SW 16.1 mph - N/A   Unknown
3:52 AM 41.0 °F 34.7 °F 30.0 °F 65% 30.03 in - SSW 10.4 mph - N/A   Unknown
9:52 AM 41.0 °F 33.5 °F 27.0 °F 57% 30.27 in - North 13.8 mph - N/A   Unknown
10:52 AM 41.0 °F 35.8 °F 24.1 °F 51% 30.27 in - North 8.1 mph 17.3 mph N/A   Unknown
11:52 AM 45.0 °F 38.5 °F 24.1 °F 44% 30.28 in - North 13.8 mph 19.6 mph N/A   Unknown
12:52 PM 45.0 °F 38.9 °F 24.1 °F 44% 30.29 in - North 12.7 mph 20.7 mph N/A   Unknown
1:52 PM 46.0 °F 43.1 °F 23.0 °F 40% 30.30 in - WNW 5.8 mph - N/A   Unknown
2:52 PM 45.0 °F 40.6 °F 21.0 °F 39% 30.34 in - NNW 8.1 mph - N/A   Unknown
3:52 PM 43.0 °F 37.7 °F 19.9 °F 40% 30.38 in - North 9.2 mph - N/A   Unknown
4:52 PM 37.9 °F 31.5 °F 21.0 °F 51% 30.43 in - NE 9.2 mph - N/A   Unknown
5:52 PM 34.0 °F 26.6 °F 18.0 °F 52% 30.46 in - ENE 9.2 mph - N/A   Unknown
6:52 PM 28.9 °F 21.1 °F 17.1 °F 61% 30.49 in - SE 8.1 mph - N/A   Unknown
7:52 PM 28.0 °F 20.0 °F 18.0 °F 66% 30.53 in - SE 8.1 mph - N/A   Unknown
8:52 PM 24.1 °F 14.4 °F 17.1 °F 75% 30.54 in - SE 9.2 mph - N/A   Unknown
9:52 PM 23.0 °F 17.0 °F 16.0 °F 74% 30.56 in - NE 4.6 mph - N/A   Unknown
10:52 PM 19.0 °F - 15.1 °F 85% 30.58 in - Calm Calm - N/A   Unknown
11:00 PM - - - N/A% - - North - - N/A   Unknown
11:52 PM 19.9 °F - 16.0 °F 85% 30.56 in - Calm Calm - N/A   Unknown